Weather History for KMTJ - February, 2011

Change the Weather History Date:

Saturday, February 19, 2011

  Actual Average Record
Temperature  
Mean Temperature 42 °F 34 °F  
Max Temperature 55 °F 46 °F 60 °F (2015)
Min Temperature 28 °F 22 °F 16 °F (2013)
Degree Days  
Heating Degree Days 24 31  
Month to date heating degree days 642  
Since 1 July heating degree days 4447  
Cooling Degree Days 0 0  
Month to date cooling degree days 0  
Year to date cooling degree days 0  
Moisture  
Dew Point 29 °F    
Average Humidity 65    
Maximum Humidity 87    
Minimum Humidity 31    
Precipitation  
Precipitation 0.11 in 0.02 in 0.11 in (2011)
Month to date precipitation 0.35  
Year to date precipitation 1.00  
Sea Level Pressure  
Sea Level Pressure 29.76 in    
Wind  
Wind Speed 12 mph (SSE)    
Max Wind Speed 43 mph    
Max Gust Speed 62 mph    
Visibility 9 miles    
Events Rain    
T = Trace of Precipitation, MM = Missing Value Source: NWS Daily Summary

Daily Weather History Graph

Daily Weather History Graph

Search for Another Location

Airport or City:

Trip Planner

Search our weather history database for the weather conditions in past years. The results will help you decide how hot, cold, wet, or windy it might be!

Date:

Astronomy

Feb. 19, 2011 Rise Set
Actual Time 6:57 AM MST 5:53 PM MST
Civil Twilight 6:30 AM MST 6:20 PM MST
Nautical Twilight 5:59 AM MST 6:51 PM MST
Astronomical Twilight 5:29 AM MST 7:22 PM MST
Moon 8:02 PM MST (2/19) 7:23 AM MST (2/19)
Length of Visible Light 11h 50m
Length of Day
10h 56m
Full, 97% of the Moon is Illuminated
Feb 19
Full
Feb 24
Last Quarter
Mar 4
New
Mar 12
First Quarter
Mar 19
Full

Hourly Weather History & Observations

Time (MST) Temp. Windchill Dew Point Humidity Pressure Visibility Wind Dir Wind Speed Gust Speed Precip Events Conditions
12:53 AM 30.0 °F 26.5 °F 23.0 °F 75% 30.01 in 10.0 mi SE 3.5 mph - N/A   Clear
1:53 AM 28.9 °F - 21.9 °F 75% 29.99 in 10.0 mi Calm Calm - N/A   Clear
2:53 AM 34.0 °F 28.8 °F 21.9 °F 61% 29.94 in 10.0 mi SW 5.8 mph - N/A   Clear
3:53 AM 36.0 °F 29.0 °F 21.9 °F 57% 29.93 in 10.0 mi SE 9.2 mph - N/A   Clear
5:53 AM 39.0 °F 30.6 °F 19.9 °F 46% 29.91 in 10.0 mi East 15.0 mph 18.4 mph N/A   Clear
6:53 AM 39.0 °F 32.3 °F 21.0 °F 49% 29.90 in 10.0 mi East 10.4 mph - N/A   Mostly Cloudy
7:53 AM 41.0 °F 33.9 °F 21.9 °F 47% 29.90 in 10.0 mi ESE 12.7 mph - N/A   Mostly Cloudy
8:53 AM 43.0 °F 34.0 °F 21.9 °F 43% 29.90 in 10.0 mi East 21.9 mph 26.5 mph N/A   Mostly Cloudy
9:53 AM 45.0 °F 37.4 °F 23.0 °F 42% 29.88 in 10.0 mi East 18.4 mph - N/A   Partly Cloudy
10:53 AM 48.0 °F - 25.0 °F 41% 29.84 in 10.0 mi East 18.4 mph - N/A   Partly Cloudy
11:53 AM 54.0 °F - 27.0 °F 35% 29.76 in 10.0 mi East 15.0 mph - N/A   Partly Cloudy
1:43 PM 55.4 °F - 24.8 °F 31% 29.73 in 10.0 mi South 20.7 mph 34.5 mph N/A   Partly Cloudy
1:53 PM 55.0 °F - 27.0 °F 34% 29.66 in 10.0 mi SSW 20.7 mph 31.1 mph N/A   Partly Cloudy
2:53 PM 46.0 °F 39.3 °F 37.9 °F 73% 29.69 in 9.0 mi SW 16.1 mph 24.2 mph 0.01 in Rain Light Rain
3:53 PM 45.0 °F 42.6 °F 39.0 °F 80% 29.67 in 8.0 mi ESE 4.6 mph - 0.02 in Rain Light Rain
4:53 PM 46.0 °F 41.9 °F 37.9 °F 73% 29.64 in 10.0 mi East 8.1 mph - 0.00 in   Partly Cloudy
5:53 PM 46.0 °F 39.0 °F 36.0 °F 68% 29.57 in 10.0 mi SSE 17.3 mph 24.2 mph N/A   Scattered Clouds
6:53 PM 46.0 °F 36.5 °F 35.1 °F 66% 29.60 in 7.0 mi SSW 31.1 mph 46.0 mph 0.01 in Rain Light Rain
7:03 PM 44.6 °F 33.1 °F 37.4 °F 76% 29.69 in 3.0 mi SSW 42.6 mph 62.1 mph 0.02 in   Haze
7:11 PM 42.8 °F 32.9 °F 37.4 °F 81% 29.70 in 2.0 mi South 26.5 mph 62.1 mph 0.04 in   Haze
7:24 PM 41.0 °F 33.5 °F 37.4 °F 87% 29.65 in 8.0 mi SSE 13.8 mph 26.5 mph 0.06 in Rain Light Rain
7:36 PM 41.0 °F 35.2 °F 37.4 °F 87% 29.68 in 10.0 mi SE 9.2 mph - 0.06 in   Mostly Cloudy
7:53 PM 42.1 °F 35.2 °F 37.0 °F 82% 29.62 in 10.0 mi WSW 12.7 mph 31.1 mph 0.06 in   Mostly Cloudy
8:53 PM 37.0 °F 30.4 °F 32.0 °F 82% 29.68 in 10.0 mi SSW 9.2 mph 24.2 mph 0.00 in Rain Light Rain
9:30 PM 37.4 °F 32.1 °F 33.8 °F 87% 29.77 in 10.0 mi East 6.9 mph - 0.01 in Rain Light Rain
9:49 PM 37.4 °F 29.8 °F 32.0 °F 81% 29.77 in 10.0 mi SE 11.5 mph 19.6 mph 0.01 in   Overcast
9:53 PM 37.0 °F 28.1 °F 32.0 °F 82% 29.69 in 10.0 mi ESE 15.0 mph 23.0 mph 0.01 in   Overcast
10:53 PM 36.0 °F 30.3 °F 30.0 °F 79% 29.69 in 10.0 mi SSW 6.9 mph - N/A   Partly Cloudy
11:53 PM 36.0 °F 28.0 °F 23.0 °F 59% 29.68 in 10.0 mi SSW 11.5 mph - N/A   Clear